Location: Vesunti
(61.5000°N, 22.8333°E)
Time: 10:20:56
(UTC+00:00)

Cosmos 1190 Rocket - Pass Details

Date: 17 February 2020
Orbit: 756 x 780 km, 74.1° (Epoch: 04 April)

Event Time Altitude Azimuth Distance (km) Brightness Sun altitude
Rises 05:11:52 0° 213° (SSW) 3,243 7.0 -7.2°
Reaches altitude 10° 05:14:14 10° 214° (SW) 2,322 6.3 -7.0°
Maximum altitude 05:19:32 87° 303° (WNW) 788 4.1 -6.4°
Drops below altitude 10° 05:24:53 10° 34° (NE) 2,347 6.8 -5.7°
Sets 05:27:17 0° 35° (NE) 3,280 7.5 -5.5°
